Lebanon, MO (65536)

1:48 AM CST on February 11, 2016 (GMT -0600)
Lebanon Mo | | Change Station
CLOSE
Current Station
Personal Weather Station
Location: Lebanon, MO
Elevation: 1207 ft
Nearby Weather Stations

Elev 1207 ft 37.69 °N, 92.69 °W | Updated 30 seconds ago

Partly Cloudy
Partly Cloudy
29.7 °F
Feels Like 24 °F
N
6.0
Wind Variable Wind from East
Gusts 7.4 mph

Today
High -- | Low -- °F
--% Chance of Precip.
Yesterday
High -- | Low -- °F
Precip. -- in
Pressure 30.05 in
Visibility 10.0 miles
Clouds Clear
Windchill 24 °F
Dew Point 14 °F
Humidity 52%
Rainfall 0.00 in
Snow Depth Not available.
7:05 AM 5:45 PM
Waxing Crescent, 10% visible
METAR KTBN 110658Z AUTO 16006KT 10SM CLR M04/M11 A3000 RMK AO2 SLP174 T10371110
Pressure 30.05 in
Visibility 10.0 miles
Clouds Clear
Windchill 24 °F
Dew Point 14 °F
Humidity 52%
Rainfall 0.00 in
Snow Depth Not available.
7:05 AM 5:45 PM
Waxing Crescent, 10% visible
METAR KTBN 110658Z AUTO 16006KT 10SM CLR M04/M11 A3000 RMK AO2 SLP174 T10371110

10-Day Weather Forecast

Almanac

Astronomy

Feb. 11, 2016 Rise Set
Actual Time
Civil Twilight
Nautical Twilight
Astronomical Twilight
Moon
Length of Visible Light
Length of Day
Tomorrow will be .
, % of the Moon is Illuminated

Today's Extremes

State Highs State Lows

Community

WunderPhotos

Upload Photos

1,892,030 photos uploaded!

WunderBlog® & News

Nearby

Air Quality

  Air Quality AQ Index Pollutant
Not available.

Snow Depth

Station Depth Elevation

Earthquake Activity

City Distance Mag. Time & Date
Minimum magnitude displayed is 2.5.

Coastal Water Temperatures

Place Temperature

Stations

Nearby Weather Stations

Station Location Temp. Windchill Dew Point Humidity Wind Precip. Elev Updated Type
                   

Watches & Warnings

There are currently no watches in effect.